Location: Bremen
(53.0793°N, 8.8017°E)
Time: 22:10:51
(UTC+02:00)

Vanguard 2 Rocket - Pass Details

Date: 16 April 2024
Orbit: 556 x 3304 km, 32.9° (Epoch: 20 May)

Event Time Altitude Azimuth Distance (km) Brightness Sun altitude
Rises 00:29:28 0° 228° (SW) 6,969 11.2 -25.6°
Reaches altitude 10° 00:34:36 10° 221° (SW) 6,135 10.8 -25.8°
Enters shadow 00:45:15 30° 193° (SSW) 4,766 10.0 -26.2°
Maximum altitude 00:51:09 35° 166° (SSE) 4,418 - -26.3°
Exits shadow 00:52:04 35° 161° (SSE) 4,402 9.7 -26.3°
Drops below altitude 10° 01:05:42 10° 110° (ESE) 5,427 10.6 -26.6°
Sets 01:09:52 0° 101° (ESE) 6,111 11.0 -26.6°
